Flag for India

Past Weather in Lucknow, Uttar Pradesh, India — Yesterday and Last 2 Weeks

Now
86 °F

Haze.


Feels Like: 85 °F
Forecast: 90 / 62 °F
Wind: 2 mph from North

Location: Lucknow / Amausi
Current Time: Oct 27, 2020 at 12:49:49 pm
Latest Report: Oct 27, 2020 at 12:00 pm
Visibility: 2 mi
Pressure29.89 "Hg
Humidity: 40%
Dew Point: 59 °F
Location of LucknowLocation

Past Weather in Lucknow — Graph

°F

Lucknow Temperature Yesterday

Maximum temperature yesterday: 90 °F (at 1:00 pm)
Minimum temperature yesterday: 63 °F (at 5:00 am)
Average temperature yesterday: 76 °F

High & Low Weather Summary for the Past Weeks

 TemperatureHumidityPressure
High97 °F (Oct 16, 1:30 pm)94% (Oct 16, 4:00 am)29.95 "Hg (Oct 16, 4:00 am)
Low63 °F (Oct 26, 5:00 am)26% (Oct 25, 3:00 pm)29.59 "Hg (Oct 12, 3:00 pm)
Average80 °F71%29.75 "Hg
* Reported Oct 12 11:30 am — Oct 27 11:30 am, Lucknow. Weather by CustomWeather, © 2020

Note: Actual official high and low records may vary slightly from our data, if they occured in-between our weather recording intervals... More about our weather records

Lucknow Weather History for the Previous 24 Hours

Scroll right to see more
 ConditionsComfort  
Time TempWeatherWind HumidityBarometerVisibility
11:30 am
Tue, Oct 27
86 °FHaze.2 mph43%29.89 "Hg2 mi
11:00 am84 °FHaze.3 mph45%29.92 "Hg2 mi
10:30 am81 °FHaze.3 mph51%29.92 "Hg2 mi
10:00 am81 °FHaze.5 mph51%29.92 "Hg2 mi
9:30 am79 °FHaze.5 mph54%29.92 "Hg2 mi
9:00 am77 °FHaze.3 mph57%29.92 "Hg1 mi
8:00 am70 °FFog.No wind78%29.89 "Hg1 mi
7:30 am66 °FFog.No wind83%29.89 "Hg1 mi
7:00 am66 °FFog.No wind83%29.86 "Hg1 mi
6:30 am66 °FFog.No wind83%29.86 "Hg1 mi
6:00 am64 °FFog.No wind83%29.83 "Hg1 mi
5:00 am64 °FFog.No wind83%29.83 "Hg1 mi
4:30 am63 °FFog.No wind88%29.83 "Hg1 mi
4:00 am63 °FFog.No wind88%29.80 "Hg1 mi
3:00 am66 °FFog.No wind83%29.83 "Hg2 mi
2:30 am66 °FFog.No wind83%29.83 "Hg2 mi
2:00 am68 °FFog.No wind88%29.83 "Hg2 mi
1:00 am68 °FFog.No wind88%29.83 "Hg2 mi
12:30 am70 °FFog.No wind83%29.83 "Hg2 mi
12:00 am70 °FFog.No wind78%29.83 "Hg2 mi
11:30 pm
Mon, Oct 26
70 °FHaze.No wind78%29.86 "Hg2 mi
11:00 pm72 °FHaze.No wind78%29.86 "Hg2 mi
10:30 pm72 °FHaze.No wind78%29.86 "Hg2 mi
10:00 pm72 °FHaze.No wind78%29.86 "Hg2 mi
9:00 pm73 °FHaze.No wind74%29.86 "Hg2 mi
8:30 pm73 °FHaze.No wind74%29.83 "Hg2 mi
8:00 pm75 °FHaze.No wind69%29.83 "Hg2 mi
7:30 pm75 °FHaze.No wind69%29.83 "Hg2 mi
7:00 pm75 °FHaze.No wind69%29.83 "Hg2 mi
6:30 pm77 °FHaze.No wind69%29.83 "Hg2 mi
6:00 pm82 °FHaze.No wind51%29.80 "Hg2 mi
5:30 pm84 °FHaze.No wind45%29.80 "Hg2 mi
5:00 pm86 °FHaze.No wind40%29.80 "Hg2 mi
4:30 pm90 °FHaze.2 mph36%29.80 "Hg2 mi
4:00 pm90 °FHaze.5 mph36%29.80 "Hg2 mi
3:30 pm90 °FHaze.6 mph36%29.80 "Hg2 mi
3:00 pm90 °FHaze.6 mph36%29.83 "Hg2 mi
2:30 pm90 °FHaze.7 mph36%29.83 "Hg2 mi
2:00 pm90 °FHaze.6 mph36%29.83 "Hg2 mi
1:30 pm90 °FHaze.6 mph36%29.86 "Hg2 mi
1:00 pm90 °FHaze.6 mph36%29.86 "Hg2 mi
12:30 pm88 °FHaze.5 mph38%29.89 "Hg2 mi
12:00 pm88 °FHaze.5 mph38%29.89 "Hg2 mi
Weather by CustomWeather, © 2020

See weather overview